Orbital Elements at Epoch 2459200.5 (2020-Dec-17.0) TDB
Reference: JPL 21 (heliocentric ecliptic J2000)
Element | Value | Uncertainty (1-sigma) | Units |
e | .1713897120697258 | 4.1393e-08 | |
a | 2.732195605116532 | 1.5782e-08 | au |
q | 2.26392538703744 | 1.0796e-07 | au |
i | 6.410645050623383 | 5.0058e-06 | deg |
node | 170.4449841398497 | 3.7404e-05 | deg |
peri | 140.05482841159 | 4.0863e-05 | deg |
M | 87.07663187628732 | 1.7523e-05 | deg |
tp | 2458801.507041809900 (2019-Nov-14.00704181) | 7.8424e-05 | TDB |
period | 1649.55237534344 4.52 | 1.4293e-05 3.913e-08 | d yr |
n | .2182410242809339 | 1.891e-09 | deg/d |
Q | 3.200465823195625 | 1.8487e-08 | au |
|
| | Orbit Determination Parameters
Additional Information
|